Content
SEND FEEDBACK

Daily
Averages
Monthly
Summary
United States of America

ASATDAS, GUAM


Home > North America > United States > Guam
Elevation: 612 feet     Latitude: 13 35N     Longitude: 144 56E

WEATHER
 
SELECT A DAY
Number of Records: 209,379;   Date Range: 1/1/95 - 9/21/14
 
SHARE

PRINT THIS DATA

[ ← Previous Day ]
WEATHER ALMANAC - JANUARY 23, 2013
[ Next Day → ]
[ °C ]   °F
Weather ElementAverageHighLow
Temperature79.7 °F84.9 °F (10:54 am)75 °F (11:54 pm)
Dewpoint69.3 °F72 °F (1:54 am)66.9 °F (4:54 pm)
Humidity71.1 %85 % (5:54 am)57 % (12:54 pm)
Barometer29.89 in29.95 in (8:54 am)29.83 in (2:54 pm)
Wind Speed10.6 mph16.1 mph (10:54 am)
Wind Gust20.7 mph (1:54 pm)
Weather ElementAverage
Visibility10 mi
Wind DirectionENE (57.8 °)

Weather ElementTotal
Precipitation---
Cooling Degree Days15 (Base 65)
Growing Degree Days30 (Base 50)
Averaged from 23 records on January 23, 2013
WEATHER CONDITIONS BREAKOUT
WIND DIRECTION BREAKOUT
WEATHER BY HOUR - JANUARY 23, 2013
[ °C ]   °F
Local TimeTemperatureDewpointHumidityBarometerVisibilityWind DirectionWind SpeedGust SpeedPrecipitationEventsConditions
1:54 AM78.1 °F72.0 °F81 %29.89 in10.0 miENE (70°)11.5 mph0.00 inRainLight Rain
2:54 AM77.0 °F71.1 °F82 %29.88 in10.0 miENE (60°)10.4 mph0.00 inClear
3:54 AM77.0 °F70.0 °F79 %29.87 in10.0 miENE (70°)10.4 mphClear
4:54 AM75.9 °F70.0 °F82 %29.88 in10.0 miENE (60°)6.9 mphClear
5:54 AM75.9 °F71.1 °F85 %29.88 in10.0 miENE (60°)6.9 mphScattered Clouds
6:54 AM77.0 °F71.1 °F82 %29.91 in10.0 miENE (60°)9.2 mphMostly Cloudy
7:54 AM78.1 °F71.1 °F79 %29.93 in10.0 miENE (60°)10.4 mphScattered Clouds
8:54 AM81.0 °F70.0 °F69 %29.95 in10.0 miENE (60°)15.0 mph0.00 inPartly Cloudy
9:54 AM81.0 °F68.0 °F65 %29.95 in10.0 miENE (70°)12.7 mphPartly Cloudy
10:54 AM84.9 °F69.1 °F59 %29.93 in10.0 miNE (40°)16.1 mphPartly Cloudy
11:54 AM84.9 °F69.1 °F59 %29.91 in10.0 miNE (40°)15.0 mphScattered Clouds
12:54 PM84.9 °F68.0 °F57 %29.88 in10.0 miNE (50°)16.1 mphPartly Cloudy
1:54 PM84.0 °F68.0 °F58 %29.85 in10.0 miNE (40°)15.0 mph20.7 mphPartly Cloudy
2:54 PM84.9 °F69.1 °F59 %29.83 in10.0 miNE (50°)12.7 mphScattered Clouds
3:54 PM82.9 °F68.0 °F60 %29.83 in10.0 miENE (60°)12.7 mph20.7 mphScattered Clouds
4:54 PM82.9 °F66.9 °F58 %29.84 in10.0 miNE (40°)15.0 mphClear
5:54 PM80.1 °F68.0 °F67 %29.86 in10.0 miENE (60°)9.2 mphClear
6:54 PM78.1 °F68.0 °F71 %29.87 in10.0 miEast (80°)6.9 mphClear
7:54 PM78.1 °F69.1 °F74 %29.89 in10.0 miENE (60°)9.2 mphClear
8:54 PM78.1 °F69.1 °F74 %29.91 in10.0 miENE (70°)8.1 mphClear
9:54 PM78.1 °F69.1 °F74 %29.91 in10.0 miENE (60°)3.5 mphPartly Cloudy
10:54 PM75.9 °F69.1 °F79 %29.91 in10.0 miENE (60°)5.8 mphClear
11:54 PM75.0 °F69.1 °F82 %29.91 in10.0 miNE (50°)5.8 mphClear
Hourly data recorded from PGUM, located miles away from Asatdas, Guam







STORIES FROM OUR PARTNERS